CW1620 Weather Reports


time (UTC)temp
C
wind
direction
speed
KPH
gust
KPH
rain 1hr
cm
rain 24hr
cm
rain mn
cm
humidity
%
barometer
mb
20260505035016 15 0.0 0.0 0.00 0.00 0.00 68 1010.5
20260505034037 15 0.0 0.0 0.00 0.00 0.00 68 1010.6
20260505033016 16 0.0 0.0 0.00 0.00 0.00 66 1010.6
20260505032016 16 0.0 0.0 0.00 0.00 0.00 67 1010.8
20260505031016 16 0.0 0.0 0.00 0.00 0.00 66 1010.7
20260505030016 16 0.0 0.0 0.00 0.00 0.00 66 1010.7
20260505025016 16 0.0 0.0 0.00 0.00 0.00 65 1010.6
20260505024016 16 0.0 0.0 0.00 0.00 0.00 65 1010.7
20260505023016 16 0.0 0.0 0.00 0.00 0.00 64 1010.7
20260505022016 16 0.0 0.0 0.00 0.00 0.00 64 1010.7
20260505021036 16 0.0 0.0 0.00 0.00 0.00 62 1010.7
20260505020016 16 0.0 0.0 0.00 0.00 0.00 62 1010.6
20260505015016 17 0.0 0.0 0.00 0.00 0.00 61 1010.6
20260505014016 17 0.0 0.0 0.00 0.00 0.00 61 1010.5
20260505013016 17 0.0 0.0 0.00 0.00 0.00 60 1010.5
20260505012036 17 0.0 0.0 0.00 0.00 0.00 59 1010.3
20260505011016 17 0.0 0.0 0.00 0.00 0.00 58 1010.3
20260505010016 17 0.0 0.0 0.00 0.00 0.00 57 1010.2
20260505005015 17 0.0 0.0 0.00 0.00 0.00 56 1010.2
20260505004016 18 0.0 0.0 0.00 0.00 0.00 55 1010.1
20260505003017 18 0.0 0.0 0.00 0.00 0.00 55 1010.1
20260505002036 18 0.0 0.0 0.00 0.00 0.00 54 1010.0
20260505001016 18 0.0 0.0 0.00 0.00 0.00 53 1010.0
20260505000016 19 0.0 0.0 0.00 0.00 0.00 54 1010.0
20260504235015 19 0.0 0.0 0.00 0.00 0.00 51 1010.0
20260504234016 20 0.0 0.0 0.00 0.00 0.00 50 1010.0
20260504233016 20 0.0 0.0 0.00 0.00 0.00 50 1009.9
20260504232016 20 0.0 0.0 0.00 0.00 0.00 51 1010.1
20260504231015 20 0.0 0.0 0.00 0.00 0.00 49 1010.1
20260504230016 21 0.0 0.0 0.00 0.00 0.00 51 1010.0
20260504225018 21 0.0 0.0 0.00 0.00 0.00 49 1009.9
20260504224018 21 0.0 0.0 0.00 0.00 0.00 47 1010.0
20260504223017 22 0.0 0.0 0.00 0.00 0.00 50 1010.0
20260504222018 22 0.0 0.0 0.00 0.00 0.00 46 1010.0
20260504221038 22 0.0 0.0 0.00 0.00 0.00 45 1010.0
20260504220018 22 0.0 0.0 0.00 0.00 0.00 48 1010.0
20260504215017 22 0.0 0.0 0.00 0.00 0.00 46 1010.0
20260504214017 22 0.0 0.0 0.00 0.00 0.00 42 1010.1
20260504213018 22 0.0 0.0 0.00 0.00 0.00 42 1010.1
20260504212018 23 0.0 0.0 0.00 0.00 0.00 44 1010.2
20260504211017 23 0.0 0.0 0.00 0.00 0.00 41 1010.1
20260504210017 23 0.0 0.0 0.00 0.00 0.00 41 1010.2
20260504205017 23 0.0 0.0 0.00 0.00 0.00 41 1010.4
20260504204017 23 0.0 0.0 0.00 0.00 0.00 40 1010.3
20260504203018 23 0.0 0.0 0.00 0.00 0.00 40 1010.3
20260504202017 23 0.0 0.0 0.00 0.00 0.00 39 1010.5
20260504201017 23 0.0 0.0 0.00 0.00 0.00 41 1010.6
20260504200017 23 0.0 0.0 0.00 0.00 0.00 41 1010.9
20260504195017 23 0.0 0.0 0.00 0.00 0.00 40 1011.0
20260504194017 23 0.0 0.0 0.00 0.00 0.00 44 1011.2
20260504193018 23 0.0 0.0 0.00 0.00 0.00 39 1011.4
20260504192017 23 0.0 0.0 0.00 0.00 0.00 39 1011.5
20260504191017 23 0.0 0.0 0.00 0.00 0.00 41 1011.6
20260504190017 23 0.0 0.0 0.00 0.00 0.00 40 1011.7
20260504185017 23 0.0 0.0 0.00 0.00 0.00 39 1011.8
20260504184017 23 0.0 0.0 0.00 0.00 0.00 38 1011.9
20260504183017 23 0.0 0.0 0.00 0.00 0.00 41 1011.9
20260504182017 22 0.0 0.0 0.00 0.00 0.00 40 1012.0
20260504181037 22 0.0 0.0 0.00 0.00 0.00 43 1012.2
20260504180017 22 0.0 0.0 0.00 0.00 0.00 41 1012.4
20260504175017 22 0.0 0.0 0.00 0.00 0.00 42 1012.4
20260504174017 22 0.0 0.0 0.00 0.00 0.00 43 1012.5
20260504173037 22 0.0 0.0 0.00 0.00 0.00 42 1012.7
20260504172017 22 0.0 0.0 0.00 0.00 0.00 43 1012.7
20260504171017 22 0.0 0.0 0.00 0.00 0.00 41 1013.0
20260504151016 19 0.0 0.0 0.00 0.00 0.00 48 1014.4
20260504141016 16 0.0 0.0 0.00 0.00 0.00 58 1014.5
20260504081036 7 0.0 0.0 0.00 0.00 0.00 76 1015.5
20260504050017 8 0.0 0.0 0.00 0.00 0.00 67 1015.6
20260504045017 8 0.0 0.0 0.00 0.00 0.00 63 1015.5
20260504044017 8 0.0 0.0 0.00 0.00 0.00 63 1015.6
20260504043018 8 0.0 0.0 0.00 0.00 0.00 64 1015.5
20260504042017 8 0.0 0.0 0.00 0.00 0.00 65 1015.4
20260504041017 8 0.0 0.0 0.00 0.00 0.00 64 1015.3
20260504040018 8 0.0 0.0 0.00 0.00 0.00 65 1015.2